Date,TemperatureHighF,TemperatureAvgF,TemperatureLowF,DewpointHighF,DewpointAvgF,DewpointLowF,HumidityHigh,HumidityAvg,HumidityLow,PressureMaxIn,PressureMinIn,WindSpeedMaxMPH,WindSpeedAvgMPH,GustSpeedMaxMPH,PrecipitationSumIn
2013-2-1,4.7,-0.3,-4.6,1.2,-6.8,-10.8,85,73,65,30.39,30.19,25,11,25,0.00
2013-2-2,9.2,5.3,0.3,3.5,-0.2,-4.7,87,78,66,30.23,30.09,16,3,16,0.00
2013-2-3,15.4,9.8,2.4,9.7,4.3,-3.4,88,78,66,30.10,30.01,25,7,25,0.00
2013-2-4,15.7,11.1,5.6,10.6,6.0,-1.0,89,80,64,30.09,30.00,16,4,16,0.00
2013-2-5,25.1,16.9,3.0,21.8,12.4,-2.2,93,82,69,30.16,29.84,22,7,22,0.00
2013-2-6,31.5,21.3,6.9,28.1,16.0,4.2,94,80,66,30.29,30.12,11,2,11,0.03
2013-2-7,32.2,30.1,20.2,32.2,29.2,19.2,100,97,88,30.15,29.94,20,5,20,0.15
2013-2-8,21.1,17.7,7.7,19.2,15.2,5.4,96,90,80,30.48,30.08,22,6,22,0.01
2013-2-9,25.8,19.8,8.3,23.5,17.9,5.7,97,92,87,30.47,30.14,21,4,21,0.00
2013-2-10,42.2,33.7,23.9,42.2,33.0,23.2,100,97,88,30.14,29.43,29,9,29,0.26
2013-2-11,39.8,30.1,24.8,35.7,25.8,20.0,92,84,77,30.01,29.43,38,18,38,0.00
2013-2-12,24.8,22.4,19.4,21.4,17.8,15.1,90,82,75,30.12,29.92,21,10,21,0.00
2013-2-13,36.5,29.3,21.3,29.0,25.2,19.9,97,85,69,29.92,29.73,18,6,18,0.00
2013-2-14,34.1,31.3,26.0,33.2,28.7,21.6,100,90,77,30.01,29.60,28,8,28,0.06
2013-2-15,25.8,17.6,10.4,24.3,9.4,3.2,94,70,55,30.25,30.01,20,8,20,0.00
2013-2-16,14.4,9.2,4.5,3.0,0.1,-4.6,82,66,54,30.27,30.20,21,6,21,0.00
2013-2-17,25.1,15.0,3.2,13.8,2.3,-4.8,72,57,40,30.29,30.03,18,3,18,0.00
2013-2-18,44.3,34.2,25.0,41.5,28.0,13.8,100,79,62,30.03,29.44,30,10,30,0.35
2013-2-19,28.7,12.3,5.4,28.7,9.4,-0.8,100,88,75,30.22,29.50,33,16,33,0.00
2013-2-20,18.0,10.6,3.2,8.9,3.7,-2.6,78,73,66,30.45,30.22,22,9,22,0.00
2013-2-21,24.8,18.4,9.9,23.8,15.2,4.9,97,87,71,30.50,30.14,26,8,26,0.00
2013-2-22,29.1,26.0,22.4,27.8,24.6,20.0,98,94,86,30.14,29.82,26,8,26,0.03
2013-2-23,26.1,23.5,18.8,24.1,19.4,15.1,93,84,73,29.98,29.87,20,9,20,0.00
2013-2-24,34.1,24.9,18.3,25.0,20.1,15.2,97,82,68,30.20,29.98,13,4,13,0.00
2013-2-25,41.9,29.7,20.3,27.5,23.8,18.8,98,80,53,30.22,30.09,10,1,10,0.00
2013-2-26,32.1,30.3,29.1,30.6,27.6,24.6,100,90,79,30.09,29.65,37,17,37,0.00
2013-2-27,31.8,29.8,27.2,31.8,29.8,27.2,100,100,100,29.79,29.62,26,9,26,0.07
2013-2-28,30.6,28.1,22.5,30.4,25.8,18.6,100,91,81,30.17,29.79,26,10,26,0.01